[[{"header":{"parameterUnit":"m.s-1","parameterCategory":1,"la1":30.2991,"la2":30.254,"lo1":-89.0895,"lo2":-89.0444,"dy":0.0017,"dx":0.0017,"nx":28,"ny":28,"refTime":"2023-09-30T21:00:00:Z","depth":0,"parameterNumber":2,"parameterNumberName":"U-component_of_WINDS"},"data":[0,0,0,0,0,0,0,0,0,0,0,0,0,0,0,0,0,0,0,0,0,0,0,0,0,0,0,0,0,0,0,0,0,0,0,0,0,0,0,0,0,0,0,0,0,0,0,0,0,0,0,0,0,0,0,0,0,0,-2.3263,-2.3263,0,-2.326,-2.326,-2.326,-2.3141,-2.3138,-2.3135,-2.3132,-2.3132,-2.3135,-2.3137,0,0,0,0,0,0,0,0,0,0,0,0,0,-2.317,-2.3172,-2.3263,-2.3263,-2.3263,-2.326,-2.326,-2.326,-2.3142,-2.3138,-2.3134,-2.3131,-2.3131,-2.3134,-2.3138,0,0,0,0,0,0,0,0,0,0,0,0,0,-2.3193,-2.3173,-2.3263,-2.3204,-2.3198,-2.326,-2.326,-2.326,-2.3142,-2.3138,-2.3133,-2.3129,-2.313,-2.3134,-2.3138,-2.3258,0,0,-2.3151,-2.3153,0,0,0,0,0,0,0,0,-2.3192,-2.3197,-2.3213,-2.3208,-2.3202,-2.3196,-2.3227,-2.326,-2.3144,-2.3164,-2.3132,-2.3126,-2.3157,-2.3159,-2.3169,-2.3258,-2.3258,-2.3152,-2.3154,-2.3156,-2.3158,0,0,0,0,0,0,0,-2.3191,-2.3196,-2.3262,-2.3213,-2.3207,-2.3178,-2.3176,-2.3233,-2.3187,-2.3162,-2.3153,-2.3154,-2.3153,-2.3165,-2.3168,-2.3258,-2.3152,-2.3156,-2.3158,-2.316,-2.3447,-2.3452,0,0,0,0,0,0,-2.3197,-2.3196,-2.3262,-2.3262,-2.3185,-2.3184,-2.3182,-2.3203,-2.3186,-2.3179,-2.3158,-2.3149,-2.316,-2.3163,-2.3167,-2.3308,-2.3156,-2.316,-2.3163,-2.3442,-2.3448,-2.3454,0,0,0,0,0,0,-2.3195,-2.3204,-2.3262,-2.3227,-2.3232,-2.319,-2.3215,-2.3205,-2.3216,-2.3183,-2.3174,-2.3178,-2.3156,-2.3161,-2.3237,-2.3306,-2.3162,-2.3166,-2.3436,-2.3444,-2.3451,-2.3589,0,0,0,0,0,0,-2.3193,-2.3204,-2.3248,-2.3228,-2.3234,-2.3331,-2.3219,-2.3209,-2.3224,-2.3211,-2.3199,-2.3193,-2.3153,-2.3231,-2.3241,-2.3309,-2.317,-2.343,-2.344,-2.3449,-2.3578,-2.3601,-2.362,0,0,0,0,0,-2.319,-2.3288,-2.3251,-2.326,-2.3289,-2.3335,-2.3339,-2.329,-2.323,-2.3275,-2.3253,-2.3193,-2.3297,-2.3239,-2.325,-2.3321,-2.3425,-2.3437,-2.3448,-2.3569,-2.3596,-2.3619,0,0,0,0,0,0,-2.3318,-2.3284,-2.3243,-2.3337,-2.334,-2.3315,-2.337,-2.332,-2.3341,-2.3328,-2.3267,-2.3266,-2.3351,-2.3343,-2.328,-2.3437,-2.335,-2.3364,-2.3439,-2.3465,-2.3485,-2.3486,-2.3173,0,0,0,0,0,-2.3357,-2.3396,-2.3365,-2.3451,-2.3454,-2.3412,-2.3431,-2.3393,-2.3394,-2.3395,-2.3379,-2.3383,-2.3416,-2.344,-2.3468,-2.3576,-2.3573,-2.363,-2.3651,-2.3668,-2.3681,-2.374,-2.3765,-2.3491,-2.3491,-2.3491,0,0,-2.3438,-2.3424,-2.3453,-2.3476,-2.3474,-2.3518,-2.3414,-2.3465,-2.3497,-2.3403,-2.3473,-2.3462,-2.3462,-2.3555,-2.3595,-2.3551,-2.3756,-2.3682,-2.3696,-2.37,-2.3754,-2.378,-2.3803,-2.3499,-2.3497,-2.3496,0,0,-2.3608,-2.3601,-2.3672,-2.3672,-2.367,-2.3641,-2.3659,-2.3642,-2.3631,-2.37,-2.3631,-2.3669,-2.3727,-2.3731,-2.3741,-2.3914,-2.386,-2.3925,-2.4033,-2.4091,-2.4112,-2.4131,-2.4195,-2.4218,-2.3938,-2.3938,-2.3938,0,-2.3709,-2.3771,-2.3716,-2.3771,-2.3784,-2.37,-2.3773,-2.3775,-2.3784,-2.3795,-2.3745,-2.3818,-2.3812,-2.3905,-2.3948,-2.3957,-2.3977,-2.3926,-2.4113,-2.4132,-2.4149,-2.4209,-2.4232,-2.3946,-2.3945,-2.3944,-2.3943,0,-2.3897,-2.3942,-2.4,-2.4009,-2.4028,-2.4092,-2.4047,-2.4074,-2.4035,-2.4012,-2.4085,-2.4075,-2.4101,-2.412,-2.4082,-2.4209,-2.4182,-2.4124,-2.4036,-2.4184,-2.4239,-2.4262,-2.3957,-2.3955,-2.3952,-2.395,0,0,-2.4148,-2.4126,-2.4148,-2.4152,-2.4144,-2.4178,-2.4238,-2.4263,-2.4288,-2.4296,-2.4347,-2.4399,-2.4345,-2.4357,-2.4318,-2.4369,-2.4509,-2.4304,-2.4304,-2.4344,-2.465,-2.4695,-2.4722,-2.4472,-2.4476,-2.448,-2.465,0,-2.4314,-2.4416,-2.4368,-2.4476,-2.4517,-2.4438,-2.4491,-2.4493,-2.4473,-2.4506,-2.4485,-2.4523,-2.4449,-2.4456,-2.4502,-2.4482,-2.4569,-2.4469,-2.4521,-2.4523,-2.4525,-2.475,-2.4798,-2.4959,-2.4671,-2.4675,-2.4677,0,-2.4521,-2.4538,-2.465,-2.4635,-2.4651,-2.47,-2.4719,-2.4751,-2.4752,-2.4734,-2.4748,-2.4698,-2.4758,-2.467,-2.4753,-2.4686,-2.4704,-2.4698,-2.4703,-2.4707,-2.461,-2.4763,-2.5009,-2.5034,-2.4711,-2.4708,-2.4705,0,-2.4696,-2.4746,-2.482,-2.4825,-2.4809,-2.4846,-2.4841,-2.4837,-2.4855,-2.4873,-2.4884,-2.4909,-2.4923,-2.4944,-2.4903,-2.4843,-2.4993,-2.4901,-2.4982,-2.4983,-2.5018,-2.5017,-2.5273,-2.5028,-2.5027,-2.5027,-2.5026,0,-2.4887,-2.4959,-2.4898,-2.4944,-2.5023,-2.4967,-2.5047,-2.5034,-2.5031,-2.5074,-2.5007,-2.5049,-2.4992,-2.5029,-2.4997,-2.5072,-2.5078,-2.5067,-2.5058,-2.5074,-2.5076,-2.5086,-2.5075,-2.5033,-2.5032,-2.503,-2.5029,0,-2.5096,-2.5057,-2.5133,-2.5111,-2.5108,-2.5167,-2.515,-2.5192,-2.5168,-2.5223,-2.5233,-2.5196,-2.5236,-2.5197,-2.5234,-2.5213,-2.5314,-2.5288,-2.5314,-2.5307,-2.5391,-2.5384,-2.5664,-2.5699,-2.543,-2.5432,-2.5435,0,-2.5221,-2.5274,-2.5259,-2.5282,-2.5282,-2.532,-2.5339,-2.5286,-2.5309,-2.5314,-2.5357,-2.539,-2.5415,-2.5483,-2.546,-2.5489,-2.5464,-2.556,-2.5468,-2.5483,-2.5468,-2.5466,-2.5472,-2.558,-2.5583,-2.5586,-2.5588,0,-2.5448,-2.5427,-2.5455,-2.5478,-2.5502,-2.5517,-2.5528,-2.5551,-2.5497,-2.5526,-2.5566,-2.5585,-2.5623,-2.5659,-2.5681,-2.5677,-2.5625,-2.5617,-2.5637,-2.5655,-2.5669,-2.5664,-2.5367,-2.5611,-2.5609,-2.5607,-2.5606,-2.5605,-2.562,-2.5665,-2.5661,-2.5696,-2.5698,-2.5709,-2.5748,-2.5729,-2.5761,-2.5788,-2.5755,-2.5805,-2.5805,-2.5829,-2.5832,-2.5871,-2.5831,-2.586,-2.5868,-2.5876,-2.5889,-2.5661,-2.5875,-2.5874,-2.5873,-2.5873,-2.5872,0,-2.5846,-2.5839,-2.5872,-2.5888,-2.5916,-2.5862,-2.5871,-2.5899,-2.5943,-2.5947,-2.5973,-2.6019,-2.6054,-2.6034,-2.6064,-2.6099,-2.6076,-2.6109,-2.6106,-2.6107,-2.5923,-2.5903,-2.6127,-2.6127,-2.6127,-2.6127,-2.6127,-2.6127,-2.5966,-2.6039,-2.6018,-2.6092,-2.6085,-2.6132,-2.6142,-2.6153,-2.6157,-2.6212,-2.6239,-2.6226,-2.6221,-2.625,-2.628,-2.6273,-2.6288,-2.6331,-2.6316,-2.6145,-2.612,-2.6096,-2.6077,-2.6334,-2.6334,-2.6497,-2.6498,-2.6499]},{"header":{"parameterUnit":"m.s-1","parameterCategory":1,"la1":30.2991,"la2":30.254,"lo1":-89.0895,"lo2":-89.0444,"dy":0.0017,"dx":0.0017,"nx":28,"ny":28,"refTime":"2023-09-30T21:00:00:Z","depth":0,"parameterNumber":3,"parameterNumberName":"V-component_of_WINDS"},"data":[0,0,0,0,0,0,0,0,0,0,0,0,0,0,0,0,0,0,0,0,0,0,0,0,0,0,0,0,0,0,0,0,0,0,0,0,0,0,0,0,0,0,0,0,0,0,0,0,0,0,0,0,0,0,0,0,0,0,1.955,1.955,0,1.9557,1.9557,1.9557,1.9581,1.9582,1.9582,1.9583,1.9585,1.9585,1.9584,0,0,0,0,0,0,0,0,0,0,0,0,0,1.9554,1.9554,1.955,1.955,1.955,1.9557,1.9557,1.9557,1.9581,1.9582,1.9582,1.9583,1.9585,1.9585,1.9584,0,0,0,0,0,0,0,0,0,0,0,0,0,1.9556,1.9554,1.955,1.9563,1.9564,1.9557,1.9557,1.9557,1.9581,1.9582,1.9582,1.9583,1.9586,1.9585,1.9584,1.9564,0,0,1.9582,1.9582,0,0,0,0,0,0,0,0,1.9555,1.9555,1.9561,1.9562,1.9563,1.9569,1.956,1.9559,1.9581,1.9574,1.9583,1.9584,1.9579,1.9579,1.9578,1.9564,1.9564,1.9582,1.9582,1.9581,1.9581,0,0,0,0,0,0,0,1.9555,1.9555,1.9553,1.9561,1.9562,1.9567,1.9569,1.956,1.9572,1.9575,1.9577,1.9577,1.958,1.9579,1.9578,1.9564,1.9582,1.9582,1.9581,1.9581,1.9533,1.9533,0,0,0,0,0,0,1.9554,1.9555,1.9552,1.9553,1.9562,1.9567,1.9568,1.9566,1.9572,1.9574,1.9577,1.9579,1.958,1.9579,1.9579,1.9555,1.9581,1.9581,1.958,1.9534,1.9533,1.9532,0,0,0,0,0,0,1.9554,1.9553,1.9552,1.9554,1.9555,1.9566,1.9564,1.9566,1.9565,1.9573,1.9575,1.9574,1.958,1.958,1.9568,1.9555,1.9581,1.958,1.9535,1.9534,1.9533,1.9507,0,0,0,0,0,0,1.9554,1.9553,1.9546,1.9554,1.9555,1.9542,1.9563,1.9566,1.9565,1.9567,1.9571,1.9572,1.9581,1.9569,1.9567,1.9555,1.9579,1.9536,1.9535,1.9533,1.9509,1.9505,1.9501,0,0,0,0,0,1.9554,1.9537,1.9546,1.9545,1.9546,1.9541,1.9541,1.9552,1.9563,1.9556,1.9561,1.9572,1.9557,1.9567,1.9566,1.9553,1.9537,1.9535,1.9533,1.951,1.9505,1.9501,0,0,0,0,0,0,1.9525,1.9539,1.9548,1.9534,1.9536,1.9545,1.9536,1.9547,1.9545,1.9547,1.956,1.956,1.9546,1.9549,1.9559,1.9534,1.9549,1.9547,1.9532,1.9528,1.9524,1.9523,1.9579,0,0,0,0,0,1.9518,1.9514,1.9525,1.9512,1.9513,1.9524,1.9522,1.9531,1.9534,1.9534,1.9539,1.954,1.9535,1.9532,1.9528,1.951,1.9511,1.9501,1.9497,1.9494,1.9491,1.9481,1.9477,1.9526,1.9526,1.9526,0,0,1.9501,1.9508,1.9505,1.9506,1.9509,1.9504,1.9525,1.9518,1.9514,1.9533,1.9522,1.9526,1.9528,1.9513,1.9506,1.9514,1.9478,1.9491,1.9489,1.9488,1.9479,1.9474,1.947,1.9525,1.9525,1.9525,0,0,1.9469,1.9474,1.9463,1.9466,1.9472,1.948,1.9477,1.9485,1.9488,1.9479,1.9493,1.9488,1.948,1.9481,1.948,1.945,1.946,1.9448,1.9428,1.9418,1.9414,1.9411,1.9399,1.9395,1.9446,1.9446,1.9446,0,1.9447,1.944,1.9456,1.9449,1.9449,1.9468,1.9457,1.9459,1.9462,1.9461,1.9471,1.9462,1.9465,1.945,1.9443,1.9442,1.9439,1.9447,1.9414,1.9411,1.9408,1.9397,1.9392,1.9444,1.9445,1.9445,1.9445,0,1.9413,1.9409,1.9399,1.9404,1.9403,1.9394,1.9407,1.9404,1.9413,1.942,1.941,1.9414,1.9412,1.941,1.9418,1.9396,1.9401,1.9412,1.9428,1.9401,1.9391,1.9387,1.9442,1.9443,1.9443,1.9444,0,0,1.936,1.9375,1.9371,1.9373,1.9382,1.9378,1.937,1.9369,1.9366,1.9368,1.9361,1.9355,1.9366,1.9365,1.9374,1.9366,1.9341,1.9378,1.9379,1.937,1.9316,1.9306,1.9301,1.9349,1.9348,1.9347,1.9316,0,1.9328,1.9315,1.933,1.9314,1.9309,1.9329,1.9322,1.9326,1.9332,1.9329,1.9336,1.9331,1.9347,1.9346,1.934,1.9346,1.933,1.9348,1.934,1.934,1.9337,1.9296,1.9285,1.9255,1.9312,1.9311,1.9311,0,1.9288,1.929,1.9274,1.9284,1.9283,1.9276,1.9277,1.9274,1.9279,1.9285,1.9285,1.9297,1.9289,1.9306,1.9294,1.9306,1.9304,1.9307,1.9306,1.9304,1.9322,1.9291,1.9246,1.924,1.9305,1.9305,1.9306,0,1.9249,1.9248,1.9238,1.924,1.9252,1.9247,1.9251,1.9257,1.9256,1.9257,1.9257,1.9256,1.9255,1.9254,1.9265,1.9277,1.9252,1.927,1.9254,1.9254,1.9246,1.9246,1.9198,1.9248,1.9248,1.9248,1.9248,0,1.921,1.9199,1.9221,1.9215,1.9203,1.922,1.9208,1.9214,1.922,1.9214,1.9232,1.9226,1.9242,1.9238,1.9247,1.9235,1.9235,1.9238,1.924,1.9235,1.9235,1.9232,1.9234,1.9247,1.9247,1.9248,1.9248,0,1.9163,1.9178,1.9169,1.9182,1.9185,1.9176,1.9186,1.9181,1.919,1.9183,1.9182,1.9195,1.9192,1.9204,1.9201,1.9207,1.919,1.9196,1.9189,1.919,1.9173,1.9174,1.912,1.9113,1.917,1.9169,1.9169,0,1.9137,1.9129,1.9142,1.9141,1.9145,1.9142,1.9142,1.9159,1.9158,1.9164,1.9157,1.9156,1.9155,1.9148,1.9156,1.9155,1.916,1.9142,1.9159,1.9155,1.9158,1.9157,1.9156,1.9137,1.9136,1.9135,1.9135,0,1.9087,1.9095,1.9095,1.9098,1.9098,1.91,1.9104,1.9101,1.912,1.9117,1.9115,1.9114,1.9113,1.9111,1.9112,1.9115,1.9127,1.913,1.9126,1.912,1.9115,1.9116,1.9176,1.913,1.9131,1.9131,1.9131,1.9131,1.9048,1.9043,1.9051,1.9051,1.9056,1.9059,1.9055,1.9064,1.9063,1.9064,1.9075,1.907,1.9076,1.9078,1.9081,1.9077,1.9085,1.908,1.9078,1.9076,1.9072,1.9118,1.9077,1.9077,1.9077,1.9077,1.9078,0,1.8999,1.9006,1.9006,1.9011,1.901,1.9025,1.903,1.9028,1.9025,1.903,1.903,1.9027,1.9025,1.9035,1.9034,1.9029,1.9034,1.9028,1.9027,1.9027,1.9066,1.9068,1.9023,1.9023,1.9023,1.9023,1.9023,1.9023,1.8972,1.8963,1.8973,1.8966,1.8974,1.897,1.8972,1.8975,1.8979,1.8976,1.8975,1.8982,1.8989,1.8989,1.8988,1.8991,1.8989,1.898,1.8985,1.9019,1.9025,1.903,1.9032,1.898,1.898,1.8947,1.8946,1.8946]}]]